Regional Weather Roundup
Issued by NWS

Home | Current Version | Previous Version | Text Only | Print | Product List | Glossary On
Versions: 1 2 3 4 5 6 7 8 9 10 11 12 13 14 15 16 17 18 19 20 21 22 23 24 25 26 27 28 29 30 31 32 33 34 35 36 37 38 39 40 41 42 43 44 45 46 47 48 49 50
000
ASUS42 KTBW 270610
RWRFL
FLORIDA REGIONAL WEATHER ROUNDUP
NATIONAL WEATHER SERVICE TAMPA BAY RUSKIN FL
100 AM EST FRI FEB 27 2015

NOTE: "FAIR" INDICATES FEW OR NO CLOUDS BELOW 12,000 FEET WITH NO
SIGNIFICANT WEATHER AND/OR OBSTRUCTIONS TO VISIBILITY.


FLZ001>010-012>015-112-114-115-270700-
PANHANDLE FLORIDA

CITY           SKY/WX    TMP DP  RH WIND       PRES   REMARKS
PENSACOLA      MOCLDY    39  34  82 N7        30.24R WCI  34
PENSACOLA NAS  MOCLDY    40  34  79 N9        30.24R WCI  34
MILTON NAS     MOCLDY    36  32  85 N5        30.23R WCI  32
CRESTVIEW      MOCLDY    36  30  79 N6        30.24R WCI  31
TRI COUNTY     FAIR      39  33  79 N6        30.22S WCI  35
PANAMA CITY    FAIR      40  36  86 NW9       30.19R WCI  34
APALACHICOLA   CLOUDY    47  38  71 N8        30.18R WCI  43

STATION/POSITION SKY/WX   TEMP    WIND        PRES    WAVE   SWELL
                          AIR SEA DIR/SP/G            HT/PER HT/PER
                          (F)     (DEG/KT/KT) (MB)    (FT/S) (FT/S)
30.1N   87.6W              46 62   30/ 21/ 23 1022.9R   2/ 4   2/ 7
29.2N   88.2W              50 63   30/ 19/ 25 1023.0R   4/ 5
28.7N   86.0W              53 67   10/ 17/ 23 1020.7F   5/ 8   3/ 8
PANAMA CITY BEAC           40 56  340/ 11/ 13 1022.3S
CAPE SAN BLAS    NOT AVBL
TOWER C                    47      10/ 15/ 17 1020.8S
28.5N   84.5W              55 66   10/ 16/ 19 1019.5R   5/ 8   3/ 8

$$
FLZ011-016>038-118-127-128-134-139-239-270700-
NORTH FLORIDA

CITY           SKY/WX    TMP DP  RH WIND       PRES   REMARKS
MARIANNA       CLOUDY    40  35  83 N8        30.20R WCI  34
TALLAHASSEE    CLOUDY    45  38  76 N5        30.18R WCI  43
PERRY          CLOUDY    46  41  80 N6        30.15S WCI  43
CROSS CITY       N/A     49  41  74 NE8       30.13R
LAKE CITY      CLOUDY    46  41  81 CALM      30.13S
GAINESVILLE    CLOUDY    48  41  76 NE10      30.12S WCI  43
MAYPORT NAS    CLOUDY    50  42  74 N10       30.13S
JACKSONVILLE   CLOUDY    47  42  83 N5        30.13F WCI  45
JAX NAS        CLOUDY    51  39  63 N10       30.13F
JAX CRAIG      CLOUDY    49  40  71 NE3       30.13S
JAX CECIL      CLOUDY    46  39  76 N3        30.13F
FERNANDINA BEA CLOUDY    52  43  71 N5        30.12S
ST AUGUSTINE   CLOUDY    50  43  77 N14       30.13S WCI  45

STATION/POSITION SKY/WX   TEMP    WIND        PRES    WAVE   SWELL
                          AIR SEA DIR/SP/G            HT/PER HT/PER
                          (F)     (DEG/KT/KT) (MB)    (FT/S) (FT/S)
SHELL POINT      NOT AVBL
KEATON BEACH               47     360/  3/  4 1020.8R
CEDAR KEY                  52      20/  8/ 10 1019.6S
FERNANDINA                 48 56  360/  9/ 11 1019.7S
30.7N   81.3W                 53                N/A     3/ 4   2/11
MAYPORT                    49 57   20/ 11/ 12 1020.0F
31.4N   80.9W              47 52   40/ 16/ 17 1020.4F   4/ 4   2/10
ST AUGUSTINE               50      10/ 17/ 20 1020.1F

$$
FLZ040-043>046-052-053-057-058-063-144-270700-
INTERIOR CENTRAL FLORIDA

CITY           SKY/WX    TMP DP  RH WIND       PRES   REMARKS
OCALA          CLOUDY    52  45  76 NE7       30.10S
THE VILLAGES     N/A     54  46  76 NE6G14    30.00R
LEESBURG       CLOUDY    54  47  77 NE12      30.09S
SANFORD        CLOUDY    55  47  74 N13       30.09R
ORLANDO EXEC   CLOUDY    57  48  72 N9        30.08R
ORLANDO INTL   CLOUDY    57  50  77 NE13      30.07F
WINTER HAVEN   CLOUDY    57  51  80 N8        30.07F
LAKELAND       CLOUDY    54  50  87 N5        30.06F
BARTOW         CLOUDY    55  50  82 N6        30.07F
OKEECHOBEE     CLOUDY    61  59  94 N3        30.04S

$$
FLZ041-047-054-059-064-141-147-270700-
EAST CENTRAL FLORIDA

CITY           SKY/WX    TMP DP  RH WIND       PRES   REMARKS
DAYTONA BEACH  CLOUDY    54  46  74 N14G20    30.10R
DELAND         CLOUDY   N/A N/A N/A N9        30.10S
MELBOURNE      CLOUDY    59  54  83 N12       30.05R
VERO BEACH     CLOUDY    61  58  90 N10       30.03F
FT PIERCE      CLOUDY    62  60  93 NW7       30.03S
STUART         LGT RAIN  63  59  88 CALM      30.04S

STATION/POSITION SKY/WX   TEMP    WIND        PRES    WAVE   SWELL
                          AIR SEA DIR/SP/G            HT/PER HT/PER
                          (F)     (DEG/KT/KT) (MB)    (FT/S) (FT/S)
28.5N   80.2W              63 68  360/ 14/ 16 1017.5R
28.9N   78.5W              67 74   10/ 12/ 16 1017.3R   6/ 8   5/ 8
TRIDENT PIER     NOT AVBL
28.4N   80.5W                 64                N/A     3/10
27.6N   80.2W                 73                N/A     2/11   2/11

$$
FLZ050-056-061-142-242-148-248-149-249-151-251-155-255-
160-260-270700-
WEST CENTRAL FLORIDA

CITY           SKY/WX    TMP DP  RH WIND       PRES   REMARKS
CRYSTAL RIVER  CLOUDY    52  45  76 N7        30.09S
INVERNESS      FAIR      54  41  62 N7        30.09S
BROOKSVILLE    CLOUDY    54  49  83 N6        30.08S
ZEPHYRHILLS    CLOUDY    54  50  87 N6        30.08S
CLEARWATER     CLOUDY    56  50  80 N9        30.07S
TAMPA INTL     CLOUDY    56  49  77 N7        30.08S
TAMPA EXEC     CLOUDY    57  50  77 CALM      30.08S
PLANT CITY     CLOUDY   N/A N/A N/A CALM      30.08F
PETER O KNIGHT CLOUDY    57  52  82 N5        30.07F
ST PETERSBURG  CLOUDY    56  50  80 N8        30.06S
SARASOTA       CLOUDY    56  50  80 N8        30.04F
VENICE         CLOUDY    57  52  82 N8        30.06F

STATION/POSITION SKY/WX   TEMP    WIND        PRES    WAVE   SWELL
                          AIR SEA DIR/SP/G            HT/PER HT/PER
                          (F)     (DEG/KT/KT) (MB)    (FT/S) (FT/S)
CEDAR KEY                  52      20/  8/ 10 1019.6S
28.5N   84.5W              55 66   10/ 16/ 19 1019.5R   5/ 8   3/ 8
27.3N   84.3W                 69                N/A     6/ 8
CLEARWATER BEACH           57 62  360/ 13/ 14 1018.3R
MIDDLE TAMPA BAY           56      20/ 11/ 13 1018.6F
VENICE                     58 64  350/ 12/ 14 1017.1F

$$
FLZ066-069-070-075>078-162-262-165-265-270700-
SOUTHWEST FLORIDA AND KEYS

CITY           SKY/WX    TMP DP  RH WIND       PRES   REMARKS
PUNTA GORDA    CLOUDY    58  53  84 N10       30.06S
FT MYERS       CLOUDY    61  55  81 N7        30.04R
SOUTHWEST INTL CLOUDY    61  55  81 N7        30.04F
NAPLES         CLOUDY    65  56  72 N12       30.03R
MARCO ISLAND   CLOUDY    66  59  77 N12       30.02F
IMMOKALEE      CLOUDY   N/A N/A N/A CALM      30.05R
MARATHON       PTCLDY    74  72  93 N3        29.99F
KEY WEST NAS   CLOUDY    68  66  93 N12       30.00S
KEY WEST INTL  CLOUDY    69  68  96 N12       30.01S

STATION/POSITION SKY/WX   TEMP    WIND        PRES    WAVE   SWELL
                          AIR SEA DIR/SP/G            HT/PER HT/PER
                          (F)     (DEG/KT/KT) (MB)    (FT/S) (FT/S)
VENICE                     58 64  350/ 12/ 14 1017.1F
NAPLES                     65 68  350/ 10/ 12 1016.8S
26.0N   85.6W              67 76  360/ 14/ 17 1017.2S   5/ 8   3/ 8
DRY TORTUGAS               66      30/ 22/ 23 1015.7F
SAND KEY                   69      10/ 18/ 20 1015.8F
SOMBRERO KEY               74      50/  4/  5 1016.3F
LONG KEY                   76 76  360/  2/  3 1016.6F
MOLASSES REEF              75 73   CALM  /  1 1015.7F

$$
FLZ067-068-071>074-168-172>174-270700-
SOUTHEAST FLORIDA

CITY           SKY/WX    TMP DP  RH WIND       PRES   REMARKS
W PALM BEACH   CLOUDY    68  63  84 N6        30.00F
FT LAUDER-EXEC CLOUDY    71  65  81 NW7       30.01S
FT LAUDERDALE  CLOUDY    71  68  90 N5        30.00S
POMPANO BEACH  CLOUDY    71  63  75 N9        30.01S
PEMBROKE PINES CLOUDY    71  66  84 NW6       30.02R
OPA LOCKA      CLOUDY    72  67  84 N8        30.01S
MIAMI          LGT RAIN  72  67  84 NW7       30.01R
WEST KENDALL   CLOUDY    71  68  90 N8        30.01R
HOMESTEAD      NOT AVBL

STATION/POSITION SKY/WX   TEMP    WIND        PRES    WAVE   SWELL
                          AIR SEA DIR/SP/G            HT/PER HT/PER
                          (F)     (DEG/KT/KT) (MB)    (FT/S) (FT/S)
PORT EVERGLADES            72      50/  6/ 13 1015.9
VIRGINIA KEY               74 73  260/  3/  4 1015.3F
LAKE WORTH                 68 73  340/ 11/ 12 1015.9F
SETTLEMENT POINT           72      60/ 11/ 11 1016.5F

$$



USA.gov is the U.S. government's official web portal to all federal, state and local government web resources and services.